Regional Weather Roundup
Issued by NWS

Home | Current Version | Previous Version | Graphics & Text | Print | Product List | Glossary On
Versions: 1 2 3 4 5 6 7 8 9 10 11 12 13 14 15 16 17 18 19 20 21 22 23 24 25 26 27 28 29 30 31 32 33 34 35 36 37 38 39 40 41 42 43 44 45 46 47 48 49 50
000
ASUS44 KMEG 310500
RWRTN
TENNESSEE HOURLY STATE WEATHER ROUNDUP
NATIONAL WEATHER SERVICE MEMPHIS TN
1200 AM CDT FRI JUL 31 2015

TNZ002-004-019-021-049-052-054-088>092-310600-
WEST TENNESSEE

CITY           SKY/WX    TMP DP  RH WIND       PRES   REMARKS
MEMPHIS INTL   PTCLDY    79  61  53 NE8       30.08S
NWS MEMPHIS      N/A     76 N/A N/A MISG        N/A
JACKSON        CLEAR     68  63  84 CALM      30.09F
DYERSBURG        N/A    N/A N/A N/A MISG        N/A
PARIS          CLEAR     63  61  94 CALM      30.11S
LEXINGTON      CLEAR     68  63  83 N5        30.08F
$$

TNZ008-025-027-028-033-062-065-066-310600-
NORTH MIDDLE TENNESSEE

CITY           SKY/WX    TMP DP  RH WIND       PRES   REMARKS
NASHVILLE      CLEAR     74  62  66 N6        30.09S
CLARKSVILLE    PTCLDY    68  65  90 CALM      30.09F
CROSSVILLE     CLEAR     70  59  68 N3        30.13S
$$

TNZ061-075-076-078-094-096-097-310600-
SOUTH MIDDLE TENNESSEE

CITY           SKY/WX    TMP DP  RH WIND       PRES   REMARKS
FAYETTEVILLE   CLEAR     70  61  73 N8        30.07F
TULLAHOMA      CLEAR     70  61  73 N5        30.10S
WINCHESTER     CLEAR     72  63  73 CALM      30.09S
MCMINNVILLE    CLEAR     66  64  94 CALM      30.09F
COLUMBIA       CLEAR     66  66 100 CALM      30.08S
SHELBYVILLE    CLEAR     68  64  88 CALM      30.09F
$$

TNZ017-018-042-046-047-310600-
NORTHEAST TENNESSEE

CITY           SKY/WX    TMP DP  RH WIND       PRES   REMARKS
TRI CITIES     MOCLDY    69  63  81 CALM      30.09R
ELIZABETHTON   MOCLDY    68  63  83 CALM      30.09R
$$

TNZ012-013-036-069-073-074-310600-
CENTRAL EAST TENNESSEE

CITY           SKY/WX    TMP DP  RH WIND       PRES   REMARKS
KNOXVILLE      CLOUDY    76  63  64 N5        30.06S
OAK RIDGE      CLEAR     70  65  84 CALM      30.08S
GATLINBURG     CLOUDY    75  63  64 CALM      30.06S
$$

TNZ083-085-099-310600-
SOUTHEAST TENNESSEE

CITY           SKY/WX    TMP DP  RH WIND       PRES   REMARKS
CHATTANOOGA    CLEAR     77  63  61 N8        30.04S
$$

SKY/WX REPORTED AS FAIR MEANS FEW OR NO CLOUDS BELOW
12 THOUSAND FEET.




USA.gov is the U.S. government's official web portal to all federal, state and local government web resources and services.